GW3697 Weather Reports


Display with metric or nautical units.
time (UTC)temp
F
wind
direction
speed
MPH
gust
MPH
rain 1hr
in
rain 24hr
in
rain mn
in
humidity
%
barometer
mb
20260504081527 46 201 2.0 10.0 0.00 0.00 0.00 79 1006.6
20260504050003 49 180 5.0 11.0 0.00 0.00 0.00 71 1008.8
20260504044510 50 202 5.0 14.0 0.00 0.00 0.00 70 1008.9
20260504043012 49 215 3.0 13.0 0.00 0.00 0.00 71 1009.0
20260504041513 49 221 4.0 10.0 0.00 0.00 0.00 70 1009.1
20260504040020 49 200 6.0 15.0 0.00 0.00 0.00 70 1009.1
20260504034503 50 232 6.0 13.0 0.00 0.00 0.00 69 1009.2
20260504033006 50 227 5.0 12.0 0.00 0.00 0.00 69 1009.6
20260504031510 50 234 4.0 13.0 0.00 0.00 0.00 69 1009.6
20260504030014 49 186 5.0 12.0 0.00 0.00 0.00 70 1009.8
20260504024518 49 228 3.0 13.0 0.00 0.00 0.00 71 1009.9
20260504023004 49 229 4.0 11.0 0.00 0.00 0.00 72 1009.9
20260504021510 49 206 3.0 11.0 0.00 0.00 0.00 73 1010.1
20260504020010 49 202 3.0 9.0 0.00 0.00 0.00 73 1010.1
20260504014514 49 204 4.0 10.0 0.00 0.00 0.00 73 1010.1
20260504013025 49 211 3.0 8.0 0.00 0.00 0.00 73 1010.1
20260504011505 49 246 5.0 11.0 0.00 0.00 0.00 71 1010.2
20260504010007 50 192 3.0 9.0 0.00 0.00 0.00 70 1010.3
20260504004532 51 202 5.0 13.0 0.00 0.00 0.00 68 1010.4
20260504003018 51 211 4.0 11.0 0.00 0.00 0.00 67 1010.6
20260504001531 52 200 4.0 11.0 0.00 0.00 0.00 67 1010.7
20260504000007 52 198 4.0 12.0 0.00 0.00 0.00 66 1010.7
20260503234517 52 213 6.0 14.0 0.00 0.00 0.00 65 1010.8
20260503233015 53 217 5.0 14.0 0.00 0.00 0.00 63 1010.9
20260503231521 54 192 6.0 14.0 0.00 0.00 0.00 61 1011.0
20260503230024 55 180 9.0 19.0 0.00 0.00 0.00 60 1011.1
20260503224528 56 198 7.0 18.0 0.00 0.00 0.00 57 1010.9
20260503223012 59 267 8.0 15.0 0.00 0.00 0.00 49 1010.7
20260503221519 59 219 8.0 18.0 0.00 0.00 0.00 47 1010.6
20260503220030 59 184 11.0 18.0 0.00 0.00 0.00 46 1010.4
20260503214536 59 158 9.0 19.0 0.00 0.00 0.00 46 1010.4
20260503213033 59 270 11.0 22.0 0.00 0.00 0.00 46 1010.4
20260503211528 60 235 7.0 23.0 0.00 0.00 0.00 46 1010.5
20260503210020 62 176 8.0 20.0 0.00 0.00 0.00 43 1010.6
20260503204528 62 212 10.0 21.0 0.00 0.00 0.00 43 1010.6
20260503203003 61 171 6.0 22.0 0.00 0.00 0.00 45 1010.8
20260503201504 61 243 5.0 20.0 0.00 0.00 0.00 45 1010.9
20260503200004 61 231 10.0 23.0 0.00 0.00 0.00 42 1010.9
20260503194504 62 269 11.0 21.0 0.00 0.00 0.00 43 1011.2
20260503193007 61 254 10.0 20.0 0.00 0.00 0.00 42 1011.4
20260503191503 61 203 9.0 18.0 0.00 0.00 0.00 45 1011.7
20260503190006 61 203 8.0 22.0 0.00 0.00 0.00 43 1011.7
20260503184507 61 236 7.0 18.0 0.00 0.00 0.00 44 1011.8
20260503183003 62 251 10.0 21.0 0.00 0.00 0.00 41 1012.0
20260503181517 62 193 11.0 27.0 0.00 0.00 0.00 41 1012.2
20260503180014 61 253 7.0 19.0 0.00 0.00 0.00 42 1012.7
20260503174505 61 256 8.0 20.0 0.00 0.00 0.00 39 1012.9
20260503173007 61 204 10.0 20.0 0.00 0.00 0.00 43 1012.9
20260503171511 61 165 8.0 16.0 0.00 0.00 0.00 42 1013.2